This is the latest recevied weather packets stored in our database for station/object K6GKS. If no packets are shown the sender has not sent any weather packets the latest 10 day(s).
| Time | Temp. | Humidity | Pressure | Rain* | Wind** | Luminosity | Snow |
|---|---|---|---|---|---|---|---|
| 1787411523 | 17.78° C | 73% | 1016 hPa | 0 mm | - | - | - |
| 1787411343 | 17.78° C | 74% | 1015.9 hPa | 0 mm | - | - | - |
| 1787411163 | 17.78° C | 74% | 1016.1 hPa | 0 mm | - | - | - |
| 1787410982 | 17.78° C | 75% | 1016.1 hPa | 0 mm | - | - | - |
| 1787410802 | 17.78° C | 74% | 1016.1 hPa | 0 mm | - | - | - |
| 1787410623 | 17.78° C | 73% | 1016.1 hPa | 0 mm | - | - | - |
| 1787410442 | 17.78° C | 72% | 1016 hPa | 0 mm | - | - | - |
| 1787410262 | 18.33° C | 72% | 1016.2 hPa | 0 mm | - | - | - |
| 1787410082 | 17.78° C | 73% | 1016 hPa | 0 mm | - | - | - |
| 1787409903 | 17.78° C | 74% | 1016.2 hPa | 0 mm | - | - | - |
| 1787409722 | 17.78° C | 75% | 1015.9 hPa | 0 mm | - | - | - |
| 1787409542 | 17.22° C | 75% | 1015.9 hPa | 0 mm | - | - | - |
| 1787409362 | 17.22° C | 76% | 1016 hPa | 0 mm | - | - | - |
| 1787409182 | 16.67° C | 77% | 1016 hPa | 0 mm | - | - | - |
| 1787409003 | 16.67° C | 78% | 1016 hPa | 0 mm | - | - | - |
| 1787408823 | 16.11° C | 79% | 1015.8 hPa | 0 mm | - | - | - |
| 1787408642 | 16.11° C | 79% | 1015.9 hPa | 0 mm | - | - | - |
| 1787408462 | 15.56° C | 80% | 1015.9 hPa | 0 mm | - | - | - |
| 1787408282 | 15.56° C | 80% | 1015.9 hPa | 0 mm | - | - | - |
| 1787408103 | 15° C | 82% | 1015.9 hPa | 0 mm | - | - | - |
| 1787407923 | 15° C | 83% | 1015.7 hPa | 0 mm | - | - | - |
| 1787407742 | 14.44° C | 84% | 1015.9 hPa | 0 mm | - | - | - |
| 1787407562 | 14.44° C | 85% | 1015.6 hPa | 0 mm | - | - | - |
| 1787407382 | 13.89° C | 85% | 1015.8 hPa | 0 mm | - | - | - |
| 1787407203 | 13.89° C | 85% | 1015.7 hPa | 0 mm | - | - | - |
* Rain latest hour (hover to see other rain measurements)
** Current wind speed in m/s (hover to see current wind gust speed)